FW8288 Weather Reports


time (UTC)temp
C
wind
direction
speed
KPH
gust
KPH
rain 1hr
cm
rain 24hr
cm
rain mn
cm
humidity
%
barometer
mb
20260506044559 25 165 0.0 1.6 0.00 0.00 0.00 87 1010.4
20260506043103 25 0 0.0 6.4 0.00 0.00 0.00 87 1010.4
20260506041609 25 165 1.6 4.8 0.00 0.00 0.00 87 1010.2
20260506040101 25 0 0.0 3.2 0.00 0.00 0.00 86 1010.3
20260506034600 25 165 0.0 8.0 0.00 0.00 0.00 85 1010.0
20260506033101 25 165 1.6 11.3 0.00 0.00 0.00 85 1009.9
20260506031557 25 166 1.6 6.4 0.00 0.00 0.00 84 1009.7
20260506030059 25 166 1.6 8.0 0.00 0.00 0.00 85 1009.7
20260506024605 25 166 3.2 9.7 0.00 0.00 0.00 84 1009.5
20260506023108 25 166 1.6 8.0 0.00 0.00 0.00 84 1009.4
20260506021622 25 166 1.6 9.7 0.00 0.00 0.00 83 1009.0
20260506020100 26 167 1.6 14.5 0.00 0.00 0.00 82 1008.9
20260506014557 26 167 0.0 9.7 0.00 0.00 0.00 82 1008.6
20260506013109 26 166 1.6 9.7 0.00 0.00 0.00 81 1008.4
20260506011615 26 167 0.0 12.9 0.00 0.00 0.00 80 1008.1
20260506010100 26 166 3.2 9.7 0.00 0.00 0.00 79 1008.1
20260506004601 26 167 1.6 11.3 0.00 0.00 0.00 78 1008.0
20260506003101 26 167 1.6 12.9 0.00 0.00 0.00 76 1007.8
20260506001603 27 167 3.2 9.7 0.00 0.00 0.00 75 1007.7
20260505234604 27 0 1.6 14.5 0.00 0.00 0.00 75 1007.7
20260505233106 27 166 4.8 12.9 0.00 0.00 0.00 75 1007.7
20260505231613 27 167 3.2 11.3 0.00 0.00 0.00 75 1007.6
20260505230100 27 167 4.8 14.5 0.00 0.00 0.00 75 1007.7
20260505224604 27 168 3.2 11.3 0.00 0.00 0.00 75 1007.7
20260505223059 27 167 4.8 12.9 0.00 0.00 0.00 75 1007.8
20260505221604 28 166 4.8 12.9 0.00 0.00 0.00 75 1007.9
20260505214601 28 166 3.2 14.5 0.00 0.00 0.00 73 1008.1
20260505213059 28 167 4.8 16.1 0.00 0.00 0.00 73 1008.2
20260505211557 28 166 4.8 11.3 0.00 0.00 0.00 74 1008.5
20260505210058 28 167 1.6 8.0 0.00 0.00 0.00 74 1008.8
20260505204600 28 167 4.8 14.5 0.00 0.00 0.00 73 1009.1
20260505203126 28 166 6.4 14.5 0.00 0.00 0.00 71 1009.1
20260505201604 28 0 3.2 9.7 0.00 0.00 0.00 73 1009.3
20260505200100 28 167 3.2 17.7 0.00 0.00 0.00 72 1009.5
20260505194604 28 167 1.6 11.3 0.00 0.00 0.00 74 1009.6
20260505193103 27 169 4.8 14.5 0.00 0.00 0.00 74 1009.7
20260505191611 28 166 3.2 11.3 0.00 0.00 0.00 74 1009.9
20260505190058 27 166 4.8 12.9 0.00 0.00 0.00 75 1009.9
20260505184559 27 0 3.2 11.3 0.00 0.00 0.00 76 1010.0
20260505183101 27 166 3.2 9.7 0.00 0.00 0.00 75 1010.1
20260505181557 27 166 3.2 9.7 0.00 0.00 0.00 76 1010.2
20260505180103 27 166 1.6 11.3 0.00 0.00 0.00 77 1010.3
20260505174605 26 166 3.2 9.7 0.00 0.00 0.00 78 1010.4
20260505173100 26 167 1.6 9.7 0.00 0.00 0.00 79 1010.7
20260505171556 26 167 3.2 9.7 0.00 0.00 0.00 79 1010.5
20260505170111 26 167 4.8 14.5 0.00 0.00 0.00 78 1010.5
20260505164558 26 166 3.2 11.3 0.00 0.00 0.00 78 1010.7
20260505163102 26 166 3.2 11.3 0.00 0.00 0.00 81 1010.6
20260505161616 25 166 4.8 12.9 0.00 0.00 0.00 82 1010.6
20260505153106 25 166 4.8 11.3 0.00 0.00 0.00 84 1010.3
20260505151606 25 166 4.8 11.3 0.00 0.00 0.00 84 1010.4
20260505140105 23 166 1.6 6.4 0.00 0.00 0.00 88 1010.2
20260505130110 22 166 0.0 4.8 0.00 0.00 0.00 91 1010.0
20260505124611 22 166 0.0 3.2 0.00 0.00 0.00 91 1010.1
20260505123104 21 0 0.0 3.2 0.00 0.00 0.00 92 1009.8
20260505121631 21 166 0.0 3.2 0.00 0.00 0.00 92 1009.9
20260505120112 21 0 0.0 3.2 0.00 0.00 0.00 92 1009.5
20260505114600 21 0 0.0 3.2 0.00 0.00 0.00 91 1009.5
20260505113108 21 0 0.0 3.2 0.00 0.00 0.00 91 1009.7
20260505111607 21 0 0.0 3.2 0.00 0.00 0.00 91 1009.5
20260505110104 21 0 0.0 0.0 0.00 0.00 0.00 91 1009.4
20260505101559 21 0 0.0 3.2 0.00 0.00 0.00 90 1009.5
20260505094557 21 0 0.0 1.6 0.00 0.00 0.00 90 1009.7
20260505093059 21 0 0.0 3.2 0.00 0.00 0.00 89 1009.7
20260505091557 21 166 0.0 4.8 0.00 0.00 0.00 89 1009.9
20260505090107 21 0 0.0 6.4 0.00 0.00 0.00 88 1010.0
20260505084600 21 166 0.0 4.8 0.00 0.00 0.00 88 1010.0
20260505083103 21 0 0.0 0.0 0.00 0.00 0.00 88 1010.3
20260505081559 21 0 0.0 3.2 0.00 0.00 0.00 88 1010.2
20260505080058 21 0 0.0 6.4 0.00 0.00 0.00 88 1010.4
20260505074558 21 166 0.0 4.8 0.00 0.00 0.00 87 1010.4
20260505073100 21 166 3.2 9.7 0.00 0.00 0.00 87 1010.4
20260505071600 21 0 1.6 4.8 0.00 0.00 0.00 86 1010.6
20260505064559 21 0 1.6 6.4 0.00 0.00 0.00 85 1011.0
20260505063059 21 166 1.6 6.4 0.00 0.00 0.00 85 1011.2
20260505061612 21 0 0.0 4.8 0.00 0.00 0.00 85 1011.3